Location: Brunembert
(50.7122°N, 1.8935°E)
Time: 10:30:32
(UTC+00:00)

IRIDIUM 103 - Pass Details

Date: 22 April 2021
Orbit: 776 x 779 km, 86.4° (Epoch: 05 May)

Event Time Altitude Azimuth Distance (km) Brightness Sun altitude
Rises 20:22:38 0° 185° (S) 3,248 7.2 -12.3°
Reaches altitude 10° 20:24:58 10° 186° (S) 2,324 6.5 -12.6°
Maximum altitude 20:30:11 81° 274° (W) 794 4.4 -13.2°
Drops below altitude 10° 20:35:26 10° 3° (N) 2,340 7.3 -13.8°
Sets 20:37:48 0° 4° (N) 3,272 8.1 -14.1°
